Regional Weather Roundup
Issued by NWS Spokane, WA

Home | Current Version | Previous Version | Text Only | Print | Product List | Glossary On
Versions: 1 2 3 4 5 6 7 8 9 10 11 12 13 14 15 16 17 18 19 20 21 22 23 24 25 26 27 28 29 30 31 32 33 34 35 36 37 38 39 40 41 42 43 44 45 46 47 48 49 50
000
NZUS01 KOTX 220110
RWROTX
EASTERN WASHINGTON/NORTHERN IDAHO ROUNDUP
NATIONAL WEATHER SERVICE, SPOKANE WA
600 PM PDT THU AUG 21 2014

Note: "fair" indicated few or no clouds below 12,000 feet with no
significant weather and/or obstructions to visibility.

...NORTHEAST WASHINGTON AND NORTHERN IDAHO PANHANDLE...

CITY           SKY/WX    TMP DP  RH WIND       PRES   REMARKS
SPOKANE INTL   PTSUNNY   79  43  27 NW6       29.90F
SPOKANE DOWNTO PTSUNNY   80  48  32 W3        29.89F
COEUR D ALENE  PTSUNNY   75  48  38 E13       29.90S
DEER PARK      PTSUNNY   74  49  41 N13       29.92S
SANDPOINT      PTSUNNY   68  50  52 NE14      29.94S

...SOUTHEAST WASHINGTON AND SOUTHERN IDAHO PANHANDLE...

CITY           SKY/WX    TMP DP  RH WIND       PRES   REMARKS
WALLA WALLA    PTSUNNY   82  34  17 W8        29.87F
PULLMAN/MOSCOW PTSUNNY   77  42  28 NW5       29.92F
LEWISTON       PTSUNNY   84  44  24 W10       29.83F
LOWELL           N/A     77  56  48 CALM      29.81S

...COLUMBIA BASIN...

CITY           SKY/WX    TMP DP  RH WIND       PRES   REMARKS
EPHRATA        PTSUNNY   81  48  31 S12       29.83F
MOSES LAKE     PTSUNNY   82  45  27 S10       29.84F
TRI CITIES     PTSUNNY   84  43  23 SW8       29.81F
HERMISTON      MOSUNNY   84  24  11 W9        29.82F
PENDLETON      MOSUNNY   81  15   8 W13       29.87F

...EAST SLOPES CASCADES...

CITY           SKY/WX    TMP DP  RH WIND       PRES   REMARKS
THE DALLES     MOSUNNY   81  39  22 NW18G25   29.86F
YAKIMA         MOSUNNY   84  39  20 S5        29.82F
ELLENSBURG     MOSUNNY   75  31  19 NW22G30   29.86S
WENATCHEE      PTSUNNY   82  49  31 E8        29.81F
OMAK           PTSUNNY   72  50  45 N25G37    29.87R

...SOUTHERN BRITISH COLUMBIA...

CITY           SKY/WX    TMP DP  RH WIND       PRES   REMARKS
PENTICTON      LGT RAIN  68  52  56 SE9       29.94R
CASTLEGAR      TSTM      61  57  88 NE3       30.01R
CRANBROOK      PTSUNNY   57  48  72 NW8       30.09R

...WESTERN MONTANA...

CITY           SKY/WX    TMP DP  RH WIND       PRES   REMARKS
MISSOULA       CLOUDY    69  50  50 NW14      29.98F

...NEIGHBORING CITIES...

CITY           SKY/WX    TMP DP  RH WIND       PRES   REMARKS
SEATTLE        MOSUNNY   69  50  50 S6        29.98F
CALGARY        CLOUDY    54  46  76 NE9       30.20S



USA.gov is the U.S. government's official web portal to all federal, state and local government web resources and services.